Location: Juniper Campground
(35.7953°N, 106.2814°W)
Time: 19:38:23
(UTC-06:00)

Envisat - Visible Passes

Search period start: 21 August 2018 00:00
Search period end: 31 August 2018 00:00
Orbit: 764 x 766 km, 98.2° (Epoch: 21 August)

Date Brightness Start Highest point End Pass type
(mag) Time Alt. Az. Time Alt. Az. Time Alt. Az.
21 Aug 4.8 21:00:20 10° SSW 21:04:48 31° W 21:09:17 10° NW visible
22 Aug 3.2 20:22:55 10° S 20:27:58 75° WSW 20:33:03 10° NNW visible
23 Aug 5.6 21:27:16 10° SW 21:30:32 17° W 21:33:49 10° NW visible
24 Aug 4.3 20:48:51 10° SSW 20:53:35 40° W 20:58:20 10° NNW visible
25 Aug 3.0 20:11:45 10° SSE 20:16:48 85° ENE 20:21:54 10° N visible
26 Aug 5.3 21:15:24 10° SW 21:19:17 22° W 21:23:11 10° NW visible
27 Aug 3.8 20:37:28 10° S 20:42:23 52° W 20:47:19 10° NNW visible
28 Aug 3.0 20:00:40 10° SSE 20:05:40 66° ENE 20:10:41 10° N visible
28 Aug 5.9 21:43:20 10° WSW 21:45:05 12° W 21:46:50 10° WNW visible
29 Aug 4.9 21:03:44 10° SSW 21:08:03 28° W 21:12:23 10° NW visible
30 Aug 3.4 20:26:10 10° S 20:31:12 68° W 20:36:15 10° NNW visible
